Powrót do katalogu

CZ-4C R/B

AktywnySSO
NORAD 41728·ROCKET BODY·🇨🇳 China

Wystrzelony Aug 9, 2016 z Taiyuan Satellite Launch Center

Loading…

Następne Przeloty (najbliższe 24 godziny)

TLE

ŚwieżeSource: Space-Track

Epoka: Sep 14, 2026, 14:32 UTC

1 41728U 16049B   26257.60575618  .00000310  00000-0  54658-4 0  9998
2 41728  97.9520 321.7195 0096151 263.6741  95.3509 14.71705323541289

Śledź CZ-4C R/B w czasie rzeczywistym z AllMySat

Download on the App Store